Powrót do katalogu

CZ-6A DEB

AktywnySSO
NORAD 54391·DEBRIS·🇨🇳 China

Wystrzelony Nov 11, 2022 z Taiyuan Satellite Launch Center

Loading…

Następne Przeloty (najbliższe 24 godziny)

TLE

ŚwieżeSource: Space-Track

Epoka: Sep 14, 2026, 02:13 UTC

1 54391U 22151DP  26257.09257233  .00001553  00000-0  32433-3 0  9998
2 54391  98.4575 298.5497 0132209 347.3555  12.4336 14.56077172203010

Śledź CZ-6A DEB w czasie rzeczywistym z AllMySat

Download on the App Store